GW5239 Weather Reports


Display with metric or nautical units.
time (UTC)temp
F
wind
direction
speed
MPH
gust
MPH
rain 1hr
in
rain 24hr
in
rain mn
in
humidity
%
barometer
mb
20260505010445 55 323 0.0 3.0 0.00 0.16 0.00 96 1012.1
20260505002238 55 300 0.0 2.0 0.00 0.16 0.00 96 1012.1
20260504234647 55 23 0.0 3.0 0.00 0.16 0.00 96 1012.3
20260504231249 55 31 0.0 1.0 0.00 0.16 0.00 96 1012.3
20260504224703 56 325 0.0 2.0 0.00 0.16 0.00 96 1012.6
20260504222343 55 148 0.0 1.0 0.00 0.17 0.00 96 1012.5
20260504220242 55 148 0.0 0.0 0.00 0.19 0.00 96 1012.6
20260504214535 55 148 0.0 0.0 0.00 0.21 0.19 96 1012.7
20260504213023 56 148 0.0 0.0 0.00 0.21 0.19 96 1012.9
20260504211522 56 148 0.0 0.0 0.00 0.22 0.19 96 1013.0
20260504210110 56 148 0.0 0.0 0.00 0.24 0.19 95 1013.1
20260504204515 56 148 0.0 0.0 0.00 0.26 0.19 95 1013.2
20260504203020 56 148 0.0 0.0 0.00 0.28 0.19 95 1013.3
20260504201504 56 148 0.0 0.0 0.00 0.29 0.19 95 1013.2
20260504200014 56 148 0.0 0.0 0.00 0.30 0.19 95 1013.1
20260504194512 56 148 0.0 0.0 0.00 0.30 0.18 95 1012.9
20260504193027 57 148 0.0 0.0 0.00 0.31 0.18 95 1012.9
20260504191506 57 148 0.0 0.0 0.00 0.32 0.18 94 1012.8
20260504190004 57 148 0.0 0.0 0.00 0.33 0.18 94 1012.8
20260504184513 57 148 0.0 0.0 0.00 0.33 0.18 94 1012.7
20260504183029 57 148 0.0 0.0 0.00 0.33 0.18 93 1012.7
20260504181525 58 148 0.0 0.0 0.00 0.33 0.18 93 1012.6
20260504180004 58 148 0.0 1.0 0.00 0.34 0.18 93 1012.6
20260504174503 58 148 0.0 1.0 0.00 0.36 0.18 93 1012.7
20260504173007 58 150 0.0 5.0 0.00 0.41 0.18 92 1012.7
20260504171516 59 175 0.0 1.0 0.00 0.43 0.18 94 1012.7